Home   Weather   San Buenaventura   Past weeks

Flag for USA Past Weather in San Buenaventura, California, USA — Yesterday and Last 2 Weeks

Now
54 °F

Sunny.


Feels Like: 53 °F
Forecast: 41 / 58 °F
Wind: 5 mph from Northwest

Location: Oxnard Airport

Current Time: Jan 24, 2017 at 5:28:40 pm

Latest Report: Jan 24, 2017 at 4:51 pm


Visibility: 9 mi

Pressure: 30.05 "Hg

Humidity: 64%

Dew Point: 42 °F

Location of San BuenaventuraLocation

Past Weather in San Buenaventura — Graph

°F

San Buenaventura Temperature Yesterday

Maximum temperature yesterday: 57 °F (at 1:51 pm)
Minimum temperature yesterday: 47 °F (at 10:51 pm)
Average temperature yesterday: 53 °F

High & Low Weather Summary for the Past Weeks

 TemperatureHumidityPressure
High66 °F (Jan 14, 12:51 pm)93% (Jan 9, 10:51 pm)30.19 "Hg (Jan 9, 10:51 pm)
Low42 °F (Jan 24, 1:51 am)27% (Jan 17, 10:51 am)29.41 "Hg (Jan 20, 1:24 pm)
Average55 °F77%29.97 "Hg
* Reported Jan 9 3:07 pm — Jan 24 3:51 pm, San Buenaventura, Weather by CustomWeather, © 2017

Note: Actual official high and low records may vary slightly from our data, if they occured in-between our weather recording intervals... More about our weather records

Advertising

San Buenaventura Weather History for the Previous 24 Hours

Scroll right to see more
 ConditionsComfort  
Time TempWeatherWind HumidityBarometerVisibility
3:51 pm
Tue, Jan 24
55 °FSunny.7 mph62%30.03 "Hg9 mi
2:51 pm56 °FSunny.8 mph60%30.02 "Hg9 mi
1:51 pm56 °FSunny.7 mph60%30.01 "Hg9 mi
12:51 pm56 °FSunny.9 mph58%30.01 "Hg9 mi
11:51 am56 °FPassing clouds.10 mph55%30.02 "Hg8 mi
10:51 am55 °FSunny.No wind55%30.03 "Hg10 mi
9:51 am52 °FSunny.3 mph61%30.03 "Hg10 mi
8:51 am48 °FSunny.8 mph63%30.01 "Hg10 mi
7:51 am44 °FSunny.8 mph71%29.99 "Hg10 mi
6:51 am42 °FClear.8 mph76%29.98 "Hg10 mi
5:51 am43 °FClear.8 mph74%29.96 "Hg10 mi
4:51 am42 °FClear.6 mph76%29.95 "Hg10 mi
3:51 am42 °FPassing clouds.6 mph76%29.94 "Hg10 mi
2:51 am43 °FClear.9 mph76%29.95 "Hg10 mi
1:51 am42 °FClear.5 mph82%29.93 "Hg10 mi
12:51 am43 °FClear.5 mph76%29.92 "Hg10 mi
11:51 pm
Mon, Jan 23
48 °FClear.6 mph68%29.92 "Hg8 mi
10:51 pm47 °FClear.6 mph71%29.91 "Hg9 mi
9:51 pm48 °FClear.6 mph71%29.90 "Hg8 mi
8:51 pm51 °FClear.7 mph66%29.88 "Hg8 mi
7:51 pm51 °FClear.12 mph66%29.87 "Hg9 mi
6:51 pm52 °FClear.15 mph64%29.86 "Hg10 mi
5:51 pm53 °FClear.17 mph61%29.85 "Hg10 mi
Weather by CustomWeather, © 2017

See weather overviewHow to use our weather pages